Simultaneous Nadir Overpasses (SNOs) Predictions

Prediction of SNOs between GOES-16 and TERRA Satellite Orbit:

Table of predicted SNOs for the next 14.0 days since TLE Epoch: 3/11/2023
Index Date Time (GOES-16) GOES-16 Lat,Lon TERRA Lat,Lon Distance(km) Time Diff (sec)
1 03/11/2023 15:20:54 0.06, -75.21 0.55, -77.44 254.49 80
2 03/13/2023 15:02:13 0.05, -75.22 -0.31, -73.58 186.53 80
3 03/14/2023 03:25:17 -0.06, -75.21 -0.79, -78.53 378.35 80
4 03/16/2023 03:06:35 -0.05, -75.22 0.07, -74.66 63.04 80
5 03/16/2023 15:29:31 0.05, -75.23 0.95, -79.59 494.78 80
6 03/18/2023 15:13:27 0.05, -75.25 0.17, -75.70 52.38 80
7 03/20/2023 14:57:23 0.05, -75.27 -0.66, -71.82 391.48 80
8 03/21/2023 03:17:47 -0.05, -75.27 -0.38, -76.78 172.36 80
9 03/23/2023 02:59:02 -0.05, -75.30 0.44, -72.89 272.94 80
10 03/23/2023 15:19:18 0.05, -75.32 0.56, -77.82 284.14 80
